Weather History for Minot, ND

Change the Weather History Date:

Friday, May 17, 2013

  Actual Average Record
Temperature  
Mean Temperature 61 °F 55 °F  
Max Temperature 70 °F 67 °F 92 °F (1972)
Min Temperature 51 °F 43 °F 23 °F (2002)
Degree Days  
Heating Degree Days 4    
Cooling Degree Days 0 0  
Month to date cooling degree days 10 0  
Year to date cooling degree days 10 1  
Growing Degree Days 10 (Base 50)    
Moisture  
Dew Point 50 °F    
Average Humidity 75    
Maximum Humidity 96    
Minimum Humidity 53    
Precipitation  
Precipitation 0.05 in 0.08 in 0.63 in (1977)
Month to date precipitation 0.36 1.22  
Year to date precipitation 1.98 4.11  
Sea Level Pressure  
Sea Level Pressure 29.89 in    
Wind  
Wind Speed 7 mph (ENE)    
Max Wind Speed 14 mph    
Max Gust Speed 18 mph    
Visibility 10 miles    
Events      
T = Trace of Precipitation, MM = Missing Value Source: NWS Daily Summary

Daily Weather History Graph

Daily Weather History Graph

Search for Another Location

Airport:

Trip Planner

Search our weather history database for the weather conditions in past years. The results will help you decide how hot, cold, wet, or windy it might be!

Date:

Astronomy

May. 17, 2013 Rise Set
Actual Time 6:02 AM CDT 9:21 PM CDT
Civil Twilight 5:24 AM CDT 9:59 PM CDT
Nautical Twilight 4:35 AM CDT 10:49 PM CDT
Astronomical Twilight 3:31 AM CDT 11:53 PM CDT
Moon 12:51 PM CDT (5/17) 2:02 AM CDT (5/17)
Length of Visible Light 16h 34m
Length of Day
15h 18m
Waxing Crescent, 45% of the Moon is Illuminated
May 17
Waxing Crescent
May 17
First Quarter
May 24
Full
May 31
Last Quarter
Jun 8
New

Hourly Weather History & Observations

Time (CDT) Temp. Dew Point Humidity Pressure Visibility Wind Dir Wind Speed Gust Speed Precip Events Conditions
12:09 AM 51.8 °F 48.2 °F 88% 29.92 in 10.0 mi East 5.8 mph - N/A   Overcast
12:39 AM 51.8 °F 48.2 °F 88% 29.93 in 10.0 mi East 5.8 mph - N/A   Overcast
12:54 AM 52.0 °F 48.9 °F 89% 29.94 in 10.0 mi East 4.6 mph - N/A   Overcast
1:54 AM 52.0 °F 48.9 °F 89% 29.94 in 10.0 mi NE 5.8 mph - 0.00 in   Overcast
2:54 AM 51.1 °F 48.9 °F 92% 29.93 in 10.0 mi NE 4.6 mph - N/A   Overcast
3:42 AM 51.8 °F 48.2 °F 88% 29.91 in 10.0 mi ENE 5.8 mph - N/A   Overcast
3:54 AM 51.1 °F 50.0 °F 96% 29.93 in 10.0 mi NE 6.9 mph - N/A   Overcast
4:28 AM 51.8 °F 50.0 °F 94% 29.91 in 10.0 mi ENE 8.1 mph - N/A   Overcast
4:54 AM 51.1 °F 50.0 °F 96% 29.91 in 10.0 mi East 10.4 mph - N/A   Overcast
5:41 AM 51.8 °F 48.2 °F 88% 29.90 in 10.0 mi East 5.8 mph - N/A   Overcast
5:54 AM 51.1 °F 48.9 °F 92% 29.92 in 10.0 mi East 4.6 mph - N/A   Overcast
6:54 AM 51.8 °F 48.2 °F 88% 29.92 in 10.0 mi Calm Calm - N/A   Overcast
7:54 AM 52.0 °F 48.9 °F 89% 29.92 in 10.0 mi NE 8.1 mph - N/A   Overcast
8:54 AM 53.1 °F 50.0 °F 89% 29.92 in 10.0 mi East 11.5 mph - 0.01 in   Mostly Cloudy
9:54 AM 55.0 °F 48.9 °F 80% 29.92 in 10.0 mi East 11.5 mph - N/A   Mostly Cloudy
10:54 AM 55.9 °F 48.9 °F 77% 29.91 in 10.0 mi ESE 10.4 mph - N/A   Mostly Cloudy
11:22 AM 57.2 °F 48.2 °F 72% 29.89 in 10.0 mi ESE 8.1 mph - N/A   Scattered Clouds
11:54 AM 57.9 °F 50.0 °F 75% 29.91 in 10.0 mi ESE 6.9 mph - N/A   Mostly Cloudy
12:54 PM 62.1 °F 50.0 °F 65% 29.89 in 10.0 mi East 6.9 mph - N/A   Overcast
1:54 PM 64.4 °F 50.0 °F 59% 29.87 in 10.0 mi Variable 5.8 mph - N/A   Scattered Clouds
2:54 PM 68.0 °F 51.1 °F 55% 29.86 in 10.0 mi ESE 5.8 mph 16.1 mph N/A   Partly Cloudy
3:54 PM 70.0 °F 52.0 °F 53% 29.85 in 10.0 mi SSE 3.5 mph - N/A   Mostly Cloudy
4:54 PM 68.0 °F 52.0 °F 56% 29.84 in 10.0 mi ENE 3.5 mph - N/A   Mostly Cloudy
5:54 PM 70.0 °F 53.1 °F 55% 29.83 in 10.0 mi East 10.4 mph - N/A   Overcast
6:54 PM 68.0 °F 53.1 °F 59% 29.82 in 10.0 mi ENE 10.4 mph - N/A   Mostly Cloudy
7:54 PM 69.1 °F 53.1 °F 57% 29.81 in 10.0 mi ENE 11.5 mph - N/A   Clear
8:54 PM 64.9 °F 53.1 °F 65% 29.82 in 10.0 mi East 6.9 mph - N/A   Partly Cloudy
9:54 PM 62.1 °F 51.1 °F 67% 29.83 in 10.0 mi NE 8.1 mph - N/A   Partly Cloudy
10:54 PM 61.0 °F 50.0 °F 67% 29.85 in 10.0 mi NNE 6.9 mph - N/A   Scattered Clouds
11:54 PM 59.0 °F 50.0 °F 72% 29.83 in 10.0 mi North 6.9 mph - N/A   Overcast